GFSNGP_925_thetae_111.txt.gz
Theta_e
315 316 317 316 316 316 318 318 320 315 312 308 305 303 301 299 298 298 298 297 296 295 295 295 296 296 296 295 296 297 299 302 304 316 327 328 327 326 324 323 322 322 322 322
315 314 316 316 314 314 315 318 318 314 310 305 301 298 297 297 296 296 296 295 295 294 293 293 294 295 295 295 294 295 296 297 298 302 308 319 324 323 322 322 322 322 322 322
314 312 315 317 313 311 311 311 311 312 311 304 299 297 295 295 295 295 296 295 293 292 292 292 292 293 293 293 294 293 294 295 296 297 297 296 306 319 321 321 322 321 321 320
310 310 318 310 308 307 307 307 307 308 305 300 297 295 294 293 293 293 294 295 293 291 291 291 291 291 292 292 292 292 292 293 293 294 294 294 294 294 300 304 307 311 308 308
312 316 315 309 305 305 309 306 304 304 303 301 299 300 294 292 292 292 293 294 292 291 290 290 290 291 290 290 290 290 290 291 292 292 292 292 292 291 291 293 291 291 293 297
312 314 314 305 301 302 306 305 303 302 300 299 303 301 295 292 292 292 292 293 291 290 289 289 289 290 290 289 288 288 288 288 290 292 292 291 291 292 292 290 290 289 289 289
312 313 307 300 301 303 308 304 303 301 299 297 296 294 293 292 291 291 291 292 291 288 287 287 287 288 290 289 288 286 286 287 288 290 291 291 291 293 292 291 291 288 287 286
307 308 306 299 301 303 303 300 300 300 299 297 295 294 293 292 291 290 289 290 289 288 286 286 285 286 287 288 289 287 285 285 285 286 286 288 289 289 290 290 289 288 288 286
303 302 300 298 299 298 297 298 297 297 297 296 296 294 293 291 289 288 288 288 288 286 285 284 284 284 285 286 289 289 286 284 283 283 284 284 284 285 286 286 287 285 285 285
303 300 299 298 296 296 296 297 295 293 293 295 294 292 290 289 287 287 286 286 285 284 283 283 282 283 283 284 286 287 287 284 283 282 281 281 282 282 283 283 283 283 283 283
301 299 297 296 296 295 294 294 293 292 290 291 290 289 288 287 286 285 285 284 283 282 282 281 280 281 282 283 284 285 286 286 284 282 280 280 280 280 281 282 282 282 282 283
300 300 297 295 294 294 293 292 290 290 289 288 288 287 286 285 284 284 283 282 281 281 280 279 278 279 280 282 283 283 284 284 284 285 282 280 279 279 280 281 281 282 282 283
297 296 295 294 293 293 291 290 289 288 287 287 286 285 284 283 282 281 281 280 279 279 278 277 277 277 279 280 281 283 283 283 283 283 283 284 281 279 278 279 280 280 281 281
295 295 295 294 293 292 291 290 288 286 285 284 284 283 282 281 280 279 277 278 278 276 276 276 276 276 278 280 281 281 282 283 282 282 282 282 282 281 279 279 278 279 279 280
294 293 292 291 291 290 289 288 286 285 283 282 281 282 281 280 278 277 276 275 275 275 274 274 274 275 276 279 281 281 281 281 282 282 282 281 281 280 279 278 277 277 278 278
292 292 291 289 287 286 286 285 284 282 281 279 278 278 279 278 277 276 276 274 274 273 272 273 274 275 275 278 279 280 280 280 280 280 280 280 280 278 277 276 275 276 276 276
292 291 289 287 285 284 283 282 281 279 278 277 276 275 276 277 275 274 274 274 273 273 272 273 274 274 275 276 278 278 279 279 278 278 278 279 279 278 276 275 274 274 275 275
288 287 288 286 284 283 281 280 278 277 276 275 274 273 273 273 273 273 273 273 274 272 272 272 273 273 274 275 277 277 278 278 278 278 277 277 277 277 277 275 274 274 274 273
285 284 284 283 282 280 279 277 276 275 274 274 273 272 271 271 271 272 273 273 271 272 272 271 272 272 273 274 275 276 276 277 276 276 276 275 275 275 275 275 274 273 273 272
283 281 280 280 280 279 277 276 274 273 273 273 272 272 272 272 272 273 273 272 271 271 271 271 271 270 272 273 273 274 274 275 275 275 275 275 275 274 274 273 273 272 272 271
277 277 276 275 275 275 274 274 272 271 271 271 272 272 273 274 274 273 273 272 271 271 271 270 268 270 271 272 272 272 272 273 273 273 273 273 273 273 273 272 272 271 271 270
276 275 275 275 275 274 274 273 272 272 272 272 273 273 273 274 275 273 271 271 271 270 270 269 268 269 270 271 271 271 271 271 271 271 271 271 271 271 271 271 271 270 270 269
276 275 275 275 275 275 274 274 274 273 273 273 273 272 273 274 274 273 271 270 270 269 270 269 268 269 270 269 269 270 270 270 270 270 269 270 269 269 269 269 269 269 268 268
277 276 276 277 276 275 274 275 275 275 274 273 273 273 273 273 273 272 271 271 270 269 269 269 269 268 269 269 268 268 268 268 268 268 268 268 269 268 268 268 268 267 267 267
278 277 278 277 276 276 277 277 276 276 276 275 275 274 273 273 272 272 271 271 270 270 270 270 269 269 268 268 268 268 268 268 268 268 267 267 268 267 267 267 266 266 266 266
278 278 277 277 278 280 279 278 277 278 277 277 277 275 274 273 272 272 271 271 271 271 270 270 270 270 269 268 267 268 268 268 268 267 267 266 267 267 267 266 266 265 265 265
278 280 279 279 279 279 278 277 276 276 276 275 275 275 273 273 272 272 272 271 271 271 270 270 269 269 269 269 268 268 268 267 267 267 267 266 266 266 266 266 265 265 265 264

GFSNGP_925_thetae_114.txt.gz
Theta_e
316 315 315 313 318 317 319 315 314 310 307 303 300 299 298 297 296 296 296 295 294 294 293 293 293 293 294 294 295 295 295 296 297 300 305 321 324 325 326 326 326 325 324 323
314 313 312 312 311 312 315 313 310 307 305 300 297 296 295 296 296 296 296 294 293 292 292 292 292 292 292 293 292 293 294 294 295 297 298 301 311 321 323 324 323 323 322 322
314 313 313 309 309 309 308 307 310 311 305 299 296 294 294 294 294 295 296 293 292 291 291 291 291 291 291 291 291 291 292 292 293 294 295 296 296 300 306 312 319 320 320 320
313 312 310 307 306 305 305 306 304 304 300 297 295 294 293 291 292 292 295 292 291 290 289 289 290 291 290 289 289 289 289 291 291 292 292 293 294 294 292 293 295 296 301 304
315 314 310 305 303 302 305 304 304 301 302 298 296 297 293 292 292 292 293 290 288 287 288 287 288 289 289 288 287 287 287 287 289 291 291 291 292 292 293 292 291 290 290 292
313 311 309 303 300 300 303 304 303 300 298 297 299 296 293 292 292 290 290 288 287 286 285 286 286 287 289 289 287 286 285 285 286 288 290 290 291 290 292 292 291 292 290 291
311 309 305 299 300 302 306 302 301 298 296 294 294 293 292 291 289 288 288 288 286 285 284 284 284 286 286 287 288 286 285 285 285 287 286 287 289 291 291 292 291 290 289 290
306 304 304 298 299 303 300 299 298 298 297 295 294 293 291 288 287 287 286 286 285 284 283 283 283 284 285 285 288 286 284 283 283 284 284 285 286 287 288 287 288 286 287 286
303 301 298 297 298 297 296 296 294 294 296 295 292 290 288 287 286 285 284 284 283 282 281 281 281 281 283 284 285 286 285 282 282 282 282 282 283 283 284 284 284 284 285 285
300 300 298 297 296 295 293 294 291 290 291 291 289 288 287 285 285 284 283 282 281 281 280 279 279 280 280 282 284 285 285 283 282 281 281 281 281 282 282 282 283 283 284 285
300 298 297 296 295 294 292 291 289 289 288 288 287 286 285 284 283 282 281 280 280 279 278 278 278 279 280 281 282 283 284 284 283 281 280 280 280 281 282 282 283 283 283 284
300 298 297 296 294 292 290 288 288 287 286 286 285 284 282 281 280 281 279 279 278 277 277 276 277 278 280 281 281 282 282 282 283 283 281 280 279 280 280 281 282 283 283 283
298 295 295 294 292 290 288 287 286 285 285 284 283 282 281 280 279 278 278 277 276 276 275 275 275 276 278 280 280 281 281 282 282 282 282 281 279 279 278 280 280 280 281 282
295 294 294 293 291 291 287 286 285 283 282 282 282 280 280 279 278 276 276 276 275 274 274 274 274 275 277 279 280 280 281 281 281 281 281 281 279 279 279 278 278 278 278 279
293 293 292 289 287 287 286 284 283 282 281 280 280 280 278 277 276 276 275 274 273 273 273 274 274 274 276 278 279 279 280 280 280 280 281 280 279 278 278 277 277 277 277 277
292 291 287 286 285 284 283 282 281 280 279 278 278 278 277 276 275 274 274 273 273 272 272 273 273 273 275 277 278 279 279 278 279 279 279 278 278 277 276 275 275 275 275 275
291 289 286 285 284 283 281 280 279 278 277 276 275 275 276 275 274 273 273 273 273 272 272 272 272 272 274 276 276 277 277 278 277 278 278 277 276 275 275 275 274 274 273 273
288 288 286 284 282 281 280 279 277 276 275 274 273 273 272 272 272 273 273 272 272 272 272 271 271 272 274 275 275 276 276 276 277 276 275 276 276 276 274 274 274 273 272 272
284 284 283 282 280 279 278 277 275 275 274 273 273 272 271 271 271 272 272 271 271 271 270 271 270 271 273 273 273 274 275 275 275 275 275 274 275 275 274 274 273 272 271 271
281 281 280 279 279 278 276 275 274 273 273 273 272 272 272 272 272 273 272 271 270 271 270 270 269 271 272 272 272 272 273 273 273 273 273 274 274 273 273 272 272 271 271 270
278 278 277 277 276 276 276 274 273 272 272 271 273 273 273 274 274 272 272 271 270 270 270 269 268 270 270 270 271 271 271 271 271 271 271 272 272 272 271 271 271 270 270 269
275 275 274 275 274 274 273 273 272 272 272 273 273 272 273 274 274 272 271 271 270 269 269 269 268 269 269 269 269 270 270 270 270 269 270 270 270 270 270 270 270 269 269 268
275 275 275 274 274 274 273 273 273 273 273 274 273 272 273 274 274 272 271 271 270 269 269 269 268 268 269 269 268 268 269 268 268 269 269 268 268 268 268 268 268 268 267 267
275 275 275 275 275 274 273 274 274 274 274 274 274 273 273 273 272 272 271 270 270 269 269 269 269 268 268 268 268 268 268 268 268 267 267 267 267 268 268 267 267 267 267 266
276 276 276 276 275 275 276 277 276 275 275 275 274 274 273 273 272 272 271 271 271 270 270 270 270 269 269 268 267 267 268 268 268 267 267 267 267 267 266 266 266 266 265 265
276 276 277 277 277 277 278 278 277 277 277 276 277 276 275 273 273 272 271 271 270 271 270 270 270 269 269 269 268 267 267 267 267 267 267 266 266 266 266 266 266 265 265 265
278 278 277 277 277 278 278 278 276 276 275 275 275 275 274 273 273 272 272 271 271 270 270 270 269 269 269 269 268 268 268 267 267 267 267 266 266 266 266 266 265 265 265 264

GFSNGP_925_thetae_120.txt.gz
Theta_e
309 307 308 308 312 313 311 310 307 303 300 298 296 296 296 296 294 292 291 291 291 290 290 290 290 290 289 289 289 289 291 291 291 292 293 293 295 297 301 308 312 319 323 325
310 312 306 304 304 307 307 305 303 301 298 296 295 294 294 294 293 291 289 288 288 288 288 288 289 290 288 287 287 287 288 288 290 291 291 291 292 293 294 297 302 304 311 310
310 309 307 304 304 303 303 302 304 302 298 296 294 293 292 292 292 289 288 287 286 286 285 286 286 288 288 286 286 286 286 286 287 288 290 290 290 290 291 292 293 297 298 297
312 311 308 304 303 303 301 301 300 297 296 294 293 291 291 290 290 288 286 285 284 284 283 284 285 286 287 285 284 284 284 284 285 286 287 288 289 290 289 290 290 290 291 293
310 308 307 305 300 302 303 301 299 299 296 294 294 293 289 287 287 286 285 284 283 282 282 282 282 284 286 287 283 282 282 282 283 284 285 285 286 287 288 288 288 288 287 289
309 310 308 301 298 299 301 302 297 296 294 293 296 293 289 285 284 283 282 282 282 281 280 280 280 282 284 285 285 282 281 281 281 283 283 284 285 286 286 287 287 287 286 286
308 306 303 297 298 300 305 300 296 293 291 291 291 288 285 283 281 281 281 281 280 280 279 279 279 280 281 283 283 284 282 281 281 281 282 282 283 284 285 286 286 286 286 286
306 304 304 297 299 301 299 296 296 292 292 288 287 286 284 281 281 281 280 279 279 279 279 278 278 279 280 280 282 283 283 281 281 280 281 282 282 283 283 284 285 285 285 285
300 299 296 294 295 294 291 291 292 292 289 288 286 285 284 282 281 279 279 278 278 278 278 278 278 278 278 279 281 282 282 282 280 280 280 281 281 282 283 283 283 283 284 284
299 297 295 293 291 290 289 289 290 288 287 286 285 284 282 281 280 278 277 277 277 277 276 276 277 277 277 278 280 281 281 281 281 280 280 280 280 281 281 282 282 282 282 282
298 297 295 292 290 289 288 288 287 286 285 284 283 282 281 280 279 277 276 276 276 276 275 275 276 277 278 277 279 280 280 280 280 280 279 280 279 279 279 280 280 281 280 280
293 295 294 293 289 288 288 287 286 284 283 282 281 280 279 278 277 276 275 274 274 274 274 274 274 276 277 277 278 278 279 279 279 278 279 279 279 279 279 278 278 278 279 279
297 295 293 290 287 286 286 285 284 283 281 280 279 279 278 277 276 276 274 274 273 273 273 273 274 275 276 277 277 277 277 277 278 278 278 277 277 277 277 278 277 276 276 277
293 292 291 289 287 285 284 283 282 281 280 280 279 278 277 276 275 274 273 273 273 272 271 271 272 274 275 276 277 277 277 277 277 277 277 276 276 276 275 274 274 274 275 274
293 292 290 286 285 283 282 282 281 281 280 279 278 277 276 275 275 273 273 272 272 271 270 270 271 272 274 275 276 276 276 276 276 277 277 276 275 275 275 274 273 273 273 273
289 287 286 285 284 283 282 281 281 280 279 278 277 276 275 274 273 272 272 272 271 270 270 270 270 272 273 274 274 275 275 275 275 275 275 276 275 274 274 273 273 272 271 270
288 287 286 285 284 283 282 281 280 279 278 277 276 275 274 274 273 271 271 271 271 271 270 269 269 271 272 272 273 273 274 274 274 275 274 274 274 274 273 273 272 271 270 270
288 287 286 285 283 282 280 279 278 277 276 275 274 274 273 273 272 272 271 271 271 270 270 269 269 270 271 271 271 271 272 273 273 273 273 273 273 273 273 272 271 270 270 269
287 285 284 283 282 281 279 277 277 276 274 273 272 272 272 272 272 272 272 271 271 270 269 269 269 270 270 270 270 270 270 271 271 271 272 272 272 272 272 271 271 270 269 269
283 283 282 281 280 279 277 277 275 274 273 272 271 271 272 272 273 273 272 272 270 270 269 269 268 269 269 269 269 269 269 269 269 269 270 270 271 271 271 270 270 270 269 268
281 280 280 279 278 278 277 276 275 274 273 272 272 273 273 273 273 272 272 272 271 270 269 269 268 268 268 268 268 268 268 268 268 268 268 269 269 269 269 269 269 269 268 268
278 277 277 277 276 275 275 275 274 273 272 272 273 273 273 273 273 273 272 272 271 270 269 269 269 268 268 268 268 267 267 267 267 267 267 267 267 267 268 268 267 267 267 267
277 277 276 276 275 275 274 273 273 273 273 273 272 272 272 273 273 273 272 272 271 270 270 269 269 269 269 268 268 267 267 267 267 267 267 266 266 266 266 266 266 266 266 266
276 276 276 275 274 273 272 273 273 273 273 273 273 273 273 273 273 273 273 272 271 270 270 270 270 269 269 269 269 268 267 267 267 267 267 267 266 266 266 266 265 266 265 265
276 275 274 274 274 274 275 274 274 274 274 274 275 275 274 274 274 274 273 272 271 271 270 270 270 270 270 269 268 268 268 268 267 267 267 267 266 266 266 265 265 265 265 265
275 274 274 275 276 276 275 275 276 276 276 276 277 276 275 275 275 274 273 272 272 271 271 270 270 270 269 269 269 269 268 268 268 267 267 267 266 266 266 266 265 265 265 265
275 275 275 275 276 276 276 276 277 278 278 277 276 275 274 273 274 273 273 273 272 272 271 270 270 270 270 269 269 269 268 268 268 267 267 267 266 266 266 266 265 265 265 264

GFSNGP_925_thetae_123.txt.gz
Theta_e
309 307 305 305 308 309 307 309 309 302 299 297 295 295 294 293 291 290 289 288 288 288 287 287 288 289 287 287 287 289 289 290 289 290 291 292 292 292 293 294 295 297 303 308
310 309 306 304 304 305 305 303 301 300 297 296 294 293 292 291 290 289 288 287 286 286 285 286 287 288 286 286 286 287 287 288 288 289 289 290 290 291 291 291 291 292 292 294
312 310 308 305 303 303 302 301 304 302 298 295 293 291 290 290 288 287 287 286 285 285 284 284 285 286 287 284 284 285 285 285 286 287 287 288 288 289 290 289 289 288 288 289
312 312 309 305 303 301 301 301 298 297 296 294 291 289 288 287 286 286 285 285 284 282 282 282 283 285 286 285 284 283 283 283 284 285 285 286 287 287 288 288 288 287 287 287
311 309 307 305 300 302 303 300 298 299 296 294 292 293 288 286 285 284 283 283 282 281 281 281 282 283 284 284 284 283 282 282 282 283 284 284 285 286 286 287 287 287 286 286
309 310 309 301 298 299 301 302 296 294 295 295 296 297 289 284 282 282 282 282 281 281 280 280 281 282 283 283 283 283 282 281 281 282 282 283 284 284 285 285 286 286 286 285
308 307 303 297 298 300 306 302 294 293 291 293 291 289 285 282 281 280 280 280 280 280 280 279 280 281 281 282 282 282 282 281 281 281 282 282 283 284 283 284 284 284 285 285
306 306 306 296 300 302 299 296 294 292 290 289 287 286 284 282 281 280 279 279 279 279 279 279 279 280 280 281 282 282 282 281 281 280 281 282 282 282 283 283 283 283 283 283
301 300 296 294 295 294 295 295 293 291 289 288 287 285 283 282 280 279 278 278 278 278 279 278 278 278 279 280 281 282 281 281 281 281 281 281 281 281 282 282 282 282 282 282
299 297 295 293 291 291 292 293 291 289 288 287 286 284 282 281 280 278 277 277 277 278 278 277 277 277 277 279 280 281 281 281 281 281 280 280 280 280 280 280 281 280 281 280
298 297 294 292 291 290 289 288 287 286 286 285 284 283 281 280 278 277 277 276 276 276 276 276 276 276 276 278 279 280 280 280 279 280 279 279 279 279 279 278 278 279 279 279
299 297 296 293 290 289 289 287 286 285 284 282 282 281 280 278 277 276 276 275 275 275 274 274 275 275 275 276 277 278 278 278 278 278 278 278 278 278 277 276 277 277 277 277
297 295 294 291 289 287 287 286 284 283 282 281 280 279 278 278 276 275 275 274 273 273 272 273 274 274 273 274 276 276 276 276 277 277 277 276 276 276 276 276 275 274 274 274
292 291 290 289 288 286 285 284 283 281 281 280 279 278 278 277 276 275 274 274 273 272 271 271 272 272 274 273 274 275 275 275 275 275 275 275 275 275 275 274 274 274 273 272
293 293 291 288 286 285 283 283 282 282 280 279 279 278 277 276 275 274 273 273 272 271 270 269 270 272 273 273 273 274 274 274 274 274 274 274 274 274 274 273 273 272 272 271
290 288 287 287 285 284 283 283 283 282 280 279 278 277 276 275 274 273 272 271 271 270 269 269 270 271 271 271 272 272 273 273 273 273 274 274 274 274 273 273 272 271 270 269
290 288 287 286 285 284 284 283 282 281 280 279 277 276 275 274 272 272 271 271 271 269 268 269 269 270 271 271 271 271 271 272 272 273 272 272 273 273 272 272 271 271 270 268
291 290 288 287 286 284 283 281 280 279 278 277 275 275 274 273 273 271 271 271 270 270 269 269 269 269 270 270 270 270 270 270 271 271 271 271 271 271 271 271 270 270 270 269
288 287 286 286 285 283 282 280 278 277 276 275 274 273 273 273 272 272 271 271 270 270 269 269 269 269 269 269 268 269 269 269 269 270 270 270 270 269 270 270 270 269 268 268
285 285 284 283 282 281 279 277 276 275 275 273 272 272 272 272 272 272 271 271 271 270 269 269 268 268 268 268 268 268 268 268 268 268 268 268 269 269 268 268 268 268 267 267
283 282 281 280 279 279 279 277 276 274 273 272 272 273 273 273 273 272 271 272 271 270 269 269 269 268 268 268 268 267 267 267 267 267 267 267 267 267 268 267 267 267 267 267
280 279 278 277 277 275 276 276 276 274 273 272 272 273 273 273 273 272 272 272 271 270 270 269 269 269 269 268 268 268 267 267 267 267 267 266 266 266 266 266 266 266 266 265
278 278 277 276 276 275 275 274 274 273 273 272 273 272 272 273 273 272 274 272 271 271 270 270 269 269 269 269 269 268 268 267 267 267 267 266 266 265 265 265 265 265 265 265
277 277 276 276 275 273 272 273 273 273 273 273 273 274 273 273 273 273 273 272 272 271 271 270 270 270 270 269 269 269 268 268 268 267 267 267 266 266 265 265 265 265 265 265
277 276 275 274 273 274 274 273 272 273 273 274 275 275 275 274 274 274 273 273 272 272 271 271 270 270 270 269 269 269 269 268 268 268 267 267 267 266 266 266 265 265 265 265
275 275 274 275 276 275 274 273 274 274 274 275 276 276 275 274 274 274 273 273 273 272 271 271 271 270 270 270 270 269 269 269 268 268 268 267 267 266 266 266 265 265 265 265
275 275 274 274 275 275 275 275 275 276 276 277 277 276 275 273 273 273 273 273 273 272 272 272 271 271 270 270 269 268 267 268 268 268 267 267 267 266 266 266 265 265 265 264

GFSNGP_925_thetae_126.txt.gz
Theta_e
309 309 307 307 307 309 310 311 313 305 301 298 296 295 294 293 291 291 290 290 289 288 288 287 288 289 288 288 289 290 290 292 293 293 292 291 292 292 293 292 291 291 292 293
314 311 308 306 306 308 306 304 302 301 299 296 294 293 293 291 290 290 289 288 287 287 286 286 287 288 288 288 288 289 289 289 291 292 293 292 291 292 291 292 290 291 290 289
317 311 311 309 305 306 304 304 305 306 300 296 295 293 291 290 289 288 288 287 286 285 284 285 286 287 287 288 287 287 287 287 288 290 291 292 292 292 291 290 290 289 289 289
315 314 315 306 304 302 303 302 301 299 298 296 293 291 289 288 288 287 287 286 285 284 283 284 285 286 286 286 286 285 285 285 286 287 288 289 289 290 290 290 289 288 288 287
315 313 308 306 304 305 306 301 299 300 298 295 293 294 291 287 286 285 286 285 284 284 283 283 284 285 285 285 285 284 284 284 284 285 286 286 287 287 288 288 288 287 286 286
312 313 313 306 301 300 302 306 298 298 299 298 296 301 294 286 285 284 285 284 284 284 284 283 284 284 285 284 284 284 283 283 283 284 284 284 284 285 286 286 285 286 285 284
311 311 306 300 300 301 308 305 297 296 297 298 296 292 287 284 283 283 284 284 284 284 283 283 283 283 283 284 284 283 284 283 283 283 283 283 284 284 284 285 285 284 285 284
310 311 311 298 301 306 301 298 297 296 295 293 291 288 286 284 284 283 283 283 283 283 283 282 282 282 283 283 284 284 284 284 284 283 283 282 283 283 283 284 284 285 284 285
305 305 298 297 299 299 299 298 296 295 293 292 290 288 287 285 284 283 283 283 282 282 282 281 281 281 282 282 283 283 283 283 283 283 283 283 282 282 282 282 283 283 283 283
302 298 297 296 296 296 297 296 294 293 292 291 290 288 286 285 284 283 282 281 281 281 281 281 280 280 280 281 282 282 282 282 282 283 282 282 282 281 280 279 280 280 281 281
299 297 297 295 295 295 294 293 291 290 290 289 288 287 286 284 282 281 281 280 279 279 279 279 279 279 279 279 280 281 281 281 281 281 281 281 282 280 279 278 277 278 278 279
306 300 299 297 294 293 292 291 290 289 288 287 286 286 284 282 281 280 280 279 278 278 278 278 278 277 277 278 279 279 280 280 279 280 280 280 280 281 279 277 276 275 275 276
301 299 297 295 293 292 291 290 288 287 286 285 284 283 282 281 280 278 279 278 277 276 276 276 276 276 275 276 277 277 278 277 279 279 279 279 279 279 279 279 278 276 274 273
298 295 294 293 292 290 289 287 286 285 284 284 283 282 281 280 279 279 278 277 276 275 274 275 275 274 273 274 275 276 277 276 277 278 278 278 278 278 277 277 277 277 275 273
297 296 296 293 290 289 287 286 286 285 283 283 282 281 281 280 279 277 277 276 275 274 273 273 273 272 272 273 274 275 275 275 276 277 277 276 277 277 276 276 276 275 274 273
296 294 293 292 290 288 288 287 286 285 283 282 281 280 279 279 277 276 275 274 274 273 271 270 271 271 271 271 273 274 275 274 274 276 276 276 276 276 276 275 275 275 274 271
295 294 293 292 290 289 288 287 287 285 283 282 280 279 278 277 276 275 274 273 271 271 271 270 270 270 270 270 272 273 274 274 273 275 275 274 274 275 274 274 274 274 273 270
296 295 293 292 291 289 288 286 285 283 282 281 279 278 276 276 277 274 272 271 271 270 270 269 269 269 269 270 270 272 273 273 273 273 273 273 273 273 273 273 273 273 272 272
294 293 292 291 290 288 287 285 284 282 280 277 276 276 275 274 274 273 272 271 271 273 272 269 269 270 270 269 269 271 272 272 272 272 272 272 272 272 272 272 272 271 271 271
293 291 290 289 288 287 285 283 280 278 276 275 274 273 273 273 273 273 272 272 274 273 270 270 269 270 270 270 269 271 271 271 271 271 271 270 271 271 271 271 270 270 270 270
290 289 287 285 284 282 281 279 278 275 274 273 274 274 274 274 273 272 272 275 275 271 270 270 270 271 270 270 270 271 271 270 270 270 270 270 270 270 270 270 269 269 269 269
286 284 282 280 280 278 278 277 277 275 273 272 273 273 273 273 273 272 273 274 275 272 271 272 272 271 270 269 271 271 270 270 270 270 270 269 269 269 269 269 268 268 268 268
285 282 280 279 278 278 276 275 275 274 273 273 273 273 274 277 277 277 277 276 273 273 272 272 272 270 270 270 271 271 271 270 270 270 269 269 269 268 268 268 268 268 268 267
282 281 280 278 276 275 276 274 274 274 274 274 274 273 274 275 276 275 275 274 273 273 272 273 272 270 270 271 271 271 270 270 270 270 270 269 269 268 268 268 267 267 267 267
281 279 277 276 278 278 278 275 274 274 273 274 275 274 274 274 275 277 276 275 274 273 273 273 271 270 270 271 271 271 271 270 270 270 269 269 269 268 268 268 267 267 267 266
280 281 280 279 281 280 279 276 278 277 277 277 278 278 278 277 276 275 274 274 273 273 273 273 273 272 272 272 271 271 270 270 270 269 269 269 268 268 268 268 267 267 267 266
281 280 280 279 279 279 278 278 279 279 277 279 280 279 278 276 275 274 274 274 274 274 273 273 273 272 272 271 271 270 270 269 269 268 268 268 268 268 268 267 267 267 266 266

GFSNGP_925_thetae_129.txt.gz
Theta_e
311 310 309 308 309 309 314 314 316 308 304 300 298 297 295 294 293 292 291 290 289 288 288 288 288 288 289 289 289 289 290 291 293 293 294 294 293 293 292 291 291 290 291 290
314 311 309 308 309 310 308 307 306 304 302 298 296 295 294 293 292 291 291 290 288 287 287 287 288 288 288 289 288 288 288 289 291 292 292 292 293 292 292 291 290 290 290 290
318 313 312 313 307 308 306 307 307 309 302 298 297 295 293 292 291 290 289 289 288 287 286 286 287 287 287 288 287 287 287 288 289 289 290 290 290 291 291 290 290 289 289 289
318 314 316 308 305 305 305 304 303 301 300 299 296 293 292 290 289 289 289 288 288 286 285 287 287 287 287 286 287 286 286 286 287 288 288 288 288 289 289 288 288 288 287 287
315 316 309 307 306 306 308 304 302 302 300 297 295 295 292 289 288 287 288 288 287 287 285 286 287 287 287 286 286 286 285 285 285 285 286 286 286 286 287 287 287 287 286 286
314 314 316 311 306 304 305 309 302 302 300 299 298 301 296 288 287 286 288 288 287 287 286 286 286 286 287 286 286 286 286 285 285 284 284 284 285 285 286 287 286 286 286 285
314 314 310 305 304 304 309 308 300 301 301 300 300 295 289 287 286 285 287 287 287 286 286 285 285 286 286 286 286 286 286 286 285 285 284 284 284 284 284 285 285 285 285 285
311 312 313 303 304 307 304 301 299 299 298 296 293 291 289 287 287 287 287 287 286 286 285 284 284 285 285 285 285 285 285 285 285 285 285 284 283 283 283 283 284 284 284 284
308 307 300 301 304 302 301 300 299 298 296 295 293 291 289 289 288 287 286 286 285 285 284 283 283 283 284 284 284 285 284 284 285 284 285 285 284 282 281 281 282 282 282 282
305 300 299 299 300 300 299 299 297 296 295 294 293 291 290 289 287 286 285 284 284 284 283 283 282 282 282 282 283 283 284 283 284 284 283 284 283 282 281 279 279 279 279 279
302 299 299 299 299 298 297 296 294 293 293 292 291 290 288 288 286 285 284 283 282 282 282 282 281 280 280 281 281 282 282 282 282 283 283 282 282 281 281 278 277 277 276 276
309 302 303 300 298 297 295 294 293 292 291 290 290 289 287 286 285 284 283 282 281 280 280 280 280 279 279 279 280 280 281 280 281 282 281 281 281 281 280 279 278 276 275 275
304 302 302 299 297 296 294 293 291 291 290 289 288 287 285 285 283 281 282 281 280 279 279 279 278 277 277 277 278 278 279 278 280 280 280 280 280 280 280 280 279 278 276 275
302 300 299 298 297 295 293 291 290 289 288 287 286 285 284 283 282 282 281 279 279 278 277 277 277 275 275 275 276 277 278 277 278 279 279 279 279 279 279 279 279 279 278 275
299 300 299 297 295 293 291 290 289 288 287 286 285 284 283 283 282 280 279 278 278 277 276 275 275 274 274 274 275 277 277 277 276 278 279 278 278 278 278 278 278 278 277 276
300 299 298 296 294 293 291 290 289 288 286 285 285 284 283 282 280 279 278 277 278 276 274 272 273 272 272 273 274 277 277 277 276 277 278 277 277 277 277 277 277 276 276 275
299 298 296 295 294 292 291 290 289 287 286 285 284 282 281 280 279 279 277 276 273 273 274 273 272 271 271 272 273 276 276 276 276 276 276 276 276 276 276 276 276 275 275 274
299 298 297 295 294 293 292 290 289 287 285 284 282 281 280 279 280 278 276 274 273 273 273 271 270 271 272 271 271 274 275 275 275 275 275 275 274 275 275 275 274 274 274 273
298 297 296 295 293 292 291 289 288 286 284 281 279 279 278 278 277 276 274 274 273 275 276 272 271 271 273 272 271 274 274 274 275 274 274 273 274 274 274 274 273 273 273 272
296 295 294 293 292 291 290 288 285 284 281 279 278 277 276 276 275 274 274 275 277 277 273 273 271 273 272 272 271 273 274 274 274 274 274 273 273 273 273 272 272 272 272 272
295 294 293 292 289 288 287 284 283 280 278 277 277 276 277 276 274 274 275 278 279 275 273 272 272 273 273 272 271 273 274 273 273 273 273 273 272 272 272 272 271 271 271 271
291 289 287 286 284 284 282 281 280 277 276 275 277 276 276 276 274 274 275 277 278 275 274 275 275 274 272 271 272 273 273 273 273 272 272 272 272 271 271 271 271 271 270 270
289 287 285 283 283 283 280 280 277 276 275 275 274 275 276 279 279 279 280 279 277 276 275 275 275 273 271 270 272 273 273 273 273 273 272 272 272 271 271 270 270 270 270 270
287 286 284 283 282 280 280 278 277 276 276 275 275 275 277 278 279 279 278 277 276 275 275 275 275 273 271 272 272 273 273 273 273 273 272 272 272 271 271 271 270 270 270 269
286 285 283 281 281 282 282 278 278 277 276 277 277 275 276 277 278 279 279 278 277 276 275 275 275 273 272 272 273 273 273 273 272 272 271 271 271 271 271 270 270 270 269 269
285 285 284 282 285 284 283 279 280 280 279 280 279 279 279 279 278 278 277 276 276 275 275 275 275 275 274 274 274 274 273 272 272 271 271 270 270 270 270 270 270 269 269 269
285 285 285 284 284 284 282 281 282 282 280 281 282 281 280 279 278 277 276 276 276 276 276 275 275 275 274 274 273 272 272 271 271 270 270 269 269 269 269 269 268 268 268 268

GFSNGP_925_thetae_132.txt.gz
Theta_e
313 310 310 309 309 309 313 315 319 310 306 301 298 297 295 294 293 293 292 290 289 288 288 288 288 288 288 288 288 288 288 289 290 290 291 292 291 291 290 290 289 289 290 287
313 311 310 308 309 307 308 309 308 305 301 299 297 296 295 293 292 291 291 290 288 287 288 288 288 288 287 287 287 287 287 288 288 289 289 290 290 289 289 289 288 287 288 287
314 313 313 314 308 309 308 308 308 308 303 299 297 295 293 293 291 291 290 290 288 287 287 288 289 288 287 287 287 286 286 286 287 287 287 287 288 288 288 288 287 287 286 286
316 314 317 308 307 307 306 305 303 301 300 300 297 294 292 291 290 290 290 289 289 287 287 288 288 288 287 287 287 286 286 286 285 286 286 286 287 288 287 287 287 287 285 285
314 316 309 307 306 306 308 306 304 302 300 298 295 294 292 290 288 288 290 289 288 287 286 287 287 287 287 287 287 287 286 286 286 285 285 285 285 286 286 286 286 286 285 284
315 315 316 311 307 306 307 309 304 302 301 298 297 299 295 289 288 288 289 289 288 287 286 286 286 286 287 287 286 286 286 285 286 285 284 284 284 284 285 284 284 284 284 284
314 312 311 307 306 305 309 310 303 303 301 300 299 297 291 288 287 287 289 288 288 286 285 285 285 285 285 286 286 285 286 285 285 285 284 283 283 282 282 283 282 282 282 282
312 311 314 305 305 308 305 303 302 303 302 301 294 291 290 288 287 288 288 288 287 286 285 284 284 284 284 285 285 285 284 285 284 285 285 284 282 281 280 280 281 280 280 280
308 307 303 303 305 304 302 301 300 299 297 295 293 290 289 289 289 288 287 286 286 285 284 283 283 283 283 283 284 284 284 283 284 283 284 283 283 281 279 279 279 278 278 277
306 301 301 302 302 302 301 300 299 297 295 294 292 291 290 289 288 287 286 285 285 284 284 283 282 282 281 282 282 283 283 283 283 283 283 283 282 282 279 278 278 277 276 276
303 301 300 300 301 300 299 297 296 296 295 294 292 291 290 288 287 286 285 284 283 283 282 282 281 280 280 280 281 282 281 282 281 282 282 282 282 281 280 278 277 276 276 275
308 302 303 301 300 298 296 295 294 294 293 292 291 289 288 287 286 285 284 283 282 281 281 281 280 279 278 279 279 280 280 279 281 281 281 281 281 281 281 280 279 277 277 275
306 302 303 301 299 297 296 295 293 292 292 291 290 288 286 285 284 283 283 282 281 280 280 279 278 277 277 277 278 278 279 278 279 280 280 280 280 280 280 279 279 279 278 276
303 302 301 299 298 297 295 293 292 291 290 289 288 286 285 283 283 283 282 280 280 279 278 278 277 275 275 275 277 277 278 277 277 279 279 279 279 279 279 279 279 278 277 277
302 301 300 299 297 296 294 292 291 290 289 287 286 285 284 283 283 281 280 279 278 278 276 276 275 274 274 274 276 278 278 277 277 278 278 278 278 278 278 278 277 277 277 276
301 300 299 298 296 294 293 292 290 289 288 287 286 285 284 283 281 280 279 278 280 277 275 273 274 273 272 273 275 277 278 277 276 277 277 277 277 277 277 277 276 276 276 274
301 300 299 297 296 294 293 291 290 289 287 286 285 284 283 282 281 279 278 276 274 275 275 274 272 272 272 272 273 276 277 276 276 276 276 276 275 275 276 275 275 275 274 274
300 299 298 297 296 294 293 291 290 288 287 285 284 283 282 281 281 279 277 275 274 274 274 273 272 272 273 272 272 274 276 276 276 276 275 275 274 275 274 274 274 274 273 273
300 299 298 296 295 294 293 291 290 288 286 284 282 281 280 280 279 277 275 275 274 275 276 275 272 272 274 273 272 273 275 275 275 275 274 274 274 274 273 273 273 273 272 272
299 298 297 296 294 293 292 290 288 285 283 282 281 279 278 278 277 276 275 274 277 278 276 274 272 273 274 274 273 273 274 275 274 274 274 273 274 273 273 273 272 272 272 271
297 296 295 293 292 292 290 288 285 283 281 281 279 278 278 277 276 275 275 276 279 276 275 274 274 274 274 274 272 273 274 274 274 274 273 273 273 273 272 272 272 271 271 271
292 290 288 288 287 285 286 285 284 281 280 279 278 277 277 276 275 274 276 278 278 277 275 275 276 275 274 273 272 273 274 274 274 274 273 273 273 273 272 272 271 271 271 270
290 289 287 286 285 285 283 282 280 279 278 277 277 277 277 278 277 277 280 280 277 277 276 276 276 275 274 273 272 273 274 274 274 273 273 273 273 273 272 272 272 271 271 270
289 287 286 285 284 282 282 280 278 277 277 276 276 276 277 279 280 280 280 278 278 277 276 276 276 275 274 273 272 272 273 274 274 273 273 272 272 272 272 271 271 271 271 270
288 286 285 284 283 283 283 279 279 277 277 277 277 276 277 278 280 280 279 278 277 277 277 276 275 275 275 273 273 273 273 274 274 273 272 272 271 271 271 270 270 270 270 270
287 287 286 284 286 285 284 280 281 279 279 280 279 278 278 278 279 278 278 278 277 276 276 276 275 275 275 275 275 274 274 272 272 271 271 270 270 269 269 269 269 269 269 268
287 287 286 285 286 286 284 282 282 282 281 282 282 281 281 281 279 278 277 277 277 277 276 276 275 275 274 273 273 272 271 271 270 269 268 267 266 266 266 265 264 264 265 265

GFSNGP_925_thetae_135.txt.gz
Theta_e
314 312 310 309 309 309 310 311 313 301 302 303 300 297 295 294 292 291 290 288 287 288 288 289 288 287 287 287 286 286 287 287 288 288 289 288 288 288 287 286 286 285 285 285
306 311 310 303 302 303 307 310 309 304 302 299 297 296 294 293 291 290 290 289 287 287 287 288 288 287 287 287 286 286 285 286 286 287 287 288 287 287 287 286 285 285 284 284
312 310 311 313 302 305 308 307 308 305 301 298 297 295 294 292 291 290 289 289 287 286 287 287 288 287 287 287 286 286 286 285 285 285 285 286 286 286 286 285 284 283 283 282
312 312 315 305 306 306 307 305 301 299 298 297 296 292 291 290 289 289 289 288 287 286 287 286 287 287 286 286 286 285 286 285 284 284 284 284 284 284 284 284 284 282 281 280
312 314 308 307 307 307 305 304 301 300 298 295 293 291 290 289 288 287 288 288 287 286 286 286 285 286 286 285 286 285 286 285 284 283 282 282 282 283 282 282 282 282 280 279
310 315 314 308 306 305 305 306 301 300 297 295 294 298 293 289 288 287 288 287 286 285 285 285 285 284 285 285 284 285 284 285 284 283 282 280 280 280 280 279 279 279 279 277
309 311 311 307 305 306 307 303 302 299 297 296 296 293 289 288 287 287 288 286 285 284 283 283 284 283 283 285 284 284 284 284 285 284 282 281 279 278 278 278 277 277 276 276
308 311 312 304 304 306 302 302 302 300 298 297 291 289 288 287 285 286 287 286 285 283 283 282 282 282 282 282 283 283 283 283 283 283 282 281 280 279 278 277 276 276 275 275
306 306 302 303 304 302 300 299 298 296 295 292 291 289 288 287 287 287 285 285 284 283 282 281 281 281 281 281 282 282 282 282 282 282 282 281 280 279 278 277 276 276 275 275
302 301 302 302 302 301 299 297 296 294 293 292 290 289 289 289 287 285 284 284 283 282 281 280 280 280 280 280 281 280 281 281 281 281 281 281 280 280 279 278 276 275 275 274
301 300 301 301 301 299 297 296 295 294 293 291 290 290 289 287 285 284 283 283 282 281 280 279 279 278 279 279 280 280 280 280 281 280 280 280 280 280 279 278 277 276 275 275
297 298 298 298 300 297 295 295 295 294 293 292 290 289 287 286 285 283 282 281 281 281 280 278 277 277 277 278 278 279 278 279 280 279 278 279 279 279 279 279 279 277 277 276
303 299 299 299 298 296 294 293 293 292 292 291 289 287 286 284 283 282 281 280 280 280 279 278 276 276 276 277 278 278 278 277 278 279 278 278 278 278 278 277 277 277 277 276
300 299 299 298 298 295 294 293 293 292 291 289 287 285 283 283 283 281 280 279 279 278 278 277 275 274 275 277 277 278 278 277 277 278 278 278 277 276 277 277 276 276 276 275
300 299 297 298 297 294 293 292 289 288 287 286 285 284 283 283 281 280 279 279 278 277 276 276 274 273 274 276 277 278 277 276 276 277 277 277 276 275 276 276 275 275 275 274
300 298 297 296 294 292 291 289 288 286 286 285 284 283 283 282 280 279 279 278 277 276 275 274 274 272 273 273 276 277 277 276 276 276 276 276 275 274 275 274 274 274 273 273
298 297 296 295 293 291 290 288 287 286 286 285 285 284 282 281 279 278 278 277 277 275 275 274 272 272 273 272 275 276 276 276 275 276 275 275 274 274 274 273 273 273 272 272
298 297 295 294 292 290 289 289 288 287 286 286 284 283 282 281 280 278 277 276 274 274 274 274 272 273 274 273 273 275 275 275 275 275 274 274 273 274 273 272 273 272 272 272
298 296 295 294 293 291 290 289 288 287 286 285 283 282 281 281 280 278 277 275 274 274 276 276 273 273 274 273 273 273 274 275 274 274 274 274 273 273 272 272 272 272 271 271
297 297 296 294 293 292 290 289 288 286 285 284 282 280 279 279 279 278 276 275 275 277 278 275 273 274 274 274 273 273 273 274 274 274 274 273 273 273 273 272 272 271 271 271
292 293 292 292 291 292 290 288 286 283 282 283 282 280 279 278 278 277 275 275 276 276 276 275 274 275 274 274 274 273 272 273 274 274 273 273 273 273 273 272 272 272 271 271
289 287 287 288 287 286 286 286 286 283 282 281 280 279 278 277 276 275 275 277 278 278 277 276 275 276 275 274 274 273 273 273 274 274 273 273 273 273 272 272 272 272 271 271
288 287 287 286 285 284 284 284 284 283 281 280 279 278 277 277 276 275 276 279 277 277 277 276 276 276 275 275 274 273 272 272 273 274 274 273 273 272 271 271 271 270 270 271
287 287 286 286 284 283 280 280 281 280 280 279 278 278 278 278 279 279 279 279 278 277 277 276 276 275 275 275 274 274 273 273 273 273 273 273 272 271 271 270 270 269 269 269
287 286 285 284 283 282 281 279 278 277 277 277 277 277 277 279 280 280 279 278 277 277 276 276 276 275 275 275 275 274 273 273 272 271 270 269 269 268 267 267 267 266 266 266
286 285 284 284 284 283 281 279 278 277 277 277 277 276 277 278 278 278 278 278 277 276 276 276 276 275 274 273 272 271 271 270 269 268 267 266 265 265 265 264 263 263 262 262
287 287 285 284 284 284 282 280 280 279 278 279 279 278 278 278 279 278 278 277 277 276 275 274 274 272 271 271 270 269 268 267 266 265 264 264 263 262 261 260 260 260 259 260